Мережа грозопеленгаціі в реальному часі - Real time lightning map
Регіони/Країни: current only
Список станцій для "-" сортований зростанням за Farthest
(Farthest = Farthest distance to a strike position in whose calculation the station was involved)
СтанціяМістоКоментарКраїнаРегіониСтатусОстанній сигналTotalValidInvolvedUsedClosestFarthest
2469Okinawa, UrumaJS6TRQ / WC8JJapanJapan 1Running2022-09-28 09:35651042594626530 km3086 km
796Balabanovo-1 (RED)Russian FederationEurope 1Running2022-09-28 09:328057604757705 km3091 km
458Jarvenpaa Green2x20cm ferrite rodFinlandEurope 1Offline2022-09-28 09:322122126761566 km3094 km
2282AshikagaAshikaga Univ. & SITJapanAsia 1Running2022-09-28 09:349721502762758 km3094 km
2522SendaiTohoku-Univ. & SITJapanJapan 2Running2022-09-28 09:3310070301918 km3095 km
2522SendaiTohoku-Univ. & SITJapanAsia 1Running2022-09-28 09:3310070322035 km3095 km
2663Kursk (Kosorzha)RC3W сontest positionRussian FederationEurope 3Running2022-09-28 09:341638425212430509 km3096 km
2663Kursk (Kosorzha)RC3W сontest positionRussian FederationEurope 2Running2022-09-28 09:341638425212231509 km3096 km
1306DundeeUnited KingdomEurope 3Running2022-09-28 09:3490545401743 km3096 km
1306DundeeUnited KingdomEurope 2Running2022-09-28 09:3490545401743 km3096 km
1993GavleSA3ARL Blue 20 cm ferriteSwedenEurope 1Running2022-09-28 09:2931928118011549 km3097 km
887Errol2, PerthshireRED- Dual Mobius, trafoUnited KingdomEurope 3Running2022-09-28 09:3489616021759 km3098 km
887Errol2, PerthshireRED- Dual Mobius, trafoUnited KingdomEurope 2Running2022-09-28 09:3489616111759 km3098 km
777Errol, PerthshireRED- Mobius-trafo, EFieldUnited KingdomEurope 3Running2022-09-28 09:3427816013921695 km3098 km
777Errol, PerthshireRED- Mobius-trafo, EFieldUnited KingdomEurope 2Running2022-09-28 09:3427816014511695 km3098 km
2738BOHUSSystem blue with ferrite rodsSwedenEurope 1Running2022-09-28 09:3385875508992300 km3100 km
2022Jarvenpaa BlueBlue 2x20cm ferrite rodFinlandEurope 1Running2022-09-28 09:3314213019781071 km3106 km
2864CharlotteUnited States / North CarolinaJapan 1Running2022-09-28 09:3163632474211101092541 km3107 km
1595Gothenburg, Slaettadamm1a:N-S, 1b:E-W, 1c:U-DSwedenEurope 1Running2022-09-28 09:331146335213701823 km3107 km
798LincolnUnited States / NebraskaNorth America 2Running2022-09-28 09:344906130251121315 km3111 km
798LincolnUnited States / NebraskaNorth America 1Running2022-09-28 09:33494813181762048 km3111 km
1093Prescott (Red)Relocated from N. Bethesda, MD...United States / ArizonaNorth America 2Running2022-09-28 09:357800704827301312202 km3115 km
2435Hornsby, NSWSystem Blue; three-axis ferrit...Australia / New South WalesOceania 1Running2022-09-28 09:34199781036273058823 km3117 km
1321Saint-Hyacinthe, QuebecCanadaNorth America 1Running2022-09-28 09:33105312556152411 km3129 km
2009ShiraokaShonan Institute of TechnologyJapanJapan 1Running2022-09-28 09:3549691384917941 km3131 km
2297HooverUnited States / AlabamaAsia 1Running2022-09-28 09:343113222170763549886 km3133 km
1684TverSystem BlueRussian FederationAsia 1Running2022-09-28 09:3464448355111011 km3137 km
2726JönköpingPowered by Jonkopings kommun I...SwedenEurope 1Running2022-09-28 09:332535187921431828 km3138 km
848Wagga Wagga, NSWAustralia / New South WalesOceania 1Running2022-09-28 09:33224641513023501661257 km3138 km
1248RidgehavenRed E200mm onlyAustralia / South AustraliaOceania 1Running2022-09-28 09:33173681429629279121052 km3145 km
1156LelandTesting low gain loopsUnited States / North CarolinaNorth America 1Running2022-09-28 09:341941186516556323 km3149 km
2438Athelstone (IADELA729)2 x 200mm Ferrite, 200mm E-fie...Australia / South AustraliaOceania 1Running2022-09-28 09:348337592224639341033 km3151 km
2891Saint-PetersburgSystem BlueRussian FederationEurope 1Running2022-09-28 09:3319029054211431 km3153 km
2836HämeenlinnaBlue with Moebius loops with T...FinlandEurope 1Running2022-09-28 09:3234327310971049 km3153 km
1462KanazawaShonan Institute of TechnologyJapanOceania 1Running2022-09-28 09:33275467441600 km3154 km
2168Australia / Australian Capital TerritoryOceania 1Running2022-09-28 09:3441681541502381141 km3158 km
1708KharkivExperimental antenaUkraineEurope 1Running2022-09-28 09:3367564885241582 km3159 km
1709Øvre Kvarv - SørfoldNorwayEurope 3Idle2022-09-28 08:3799901214 km3161 km
1709Øvre Kvarv - SørfoldNorwayEurope 2Idle2022-09-28 08:3799901214 km3161 km
2155Mountain Lake Bio. Sta.UVa hosted, VT managedUnited States / VirginiaNorth America 1Running2022-09-28 09:29780373042241264 km3163 km
1835StavangerCurrently testingNorwayEurope 3Running2022-09-28 09:3470125202131 km3172 km
1835StavangerCurrently testingNorwayEurope 2Running2022-09-28 09:3470125202131 km3172 km
1971Saint-PetersburgRussian FederationEurope 1Running2022-09-28 09:335523398431405 km3179 km
2610PalatkaUnited States / FloridaNorth America 2Running2022-09-28 09:3557834019413 km3179 km
2039GerringongBlue 100mm E 2x200mm FerriteHAustralia / New South WalesOceania 1Running2022-09-28 09:3324526165381682107411 km3183 km
2126KrabiSamuel Institute of TechnologyEstoniaEurope 3Running2022-09-28 09:342081625401258 km3184 km
2126KrabiSamuel Institute of TechnologyEstoniaEurope 2Running2022-09-28 09:342081625701258 km3184 km
2165ShimaneKamo-labJapanJapan 1Running2022-09-28 09:35140130917101355 km3185 km
1321Saint-Hyacinthe, QuebecCanadaNorth America 2Running2022-09-28 09:33105292556194411 km3187 km
2953StrathalbynSHR/Hallett/CFS SBYN-02Australia / South AustraliaOceania 1Offline2022-09-28 08:4518179136782294574982 km3190 km
2640Asia 1Running2022-09-28 09:332721903026 km3197 km
2453Llwynhendy, Llanelli SA14 9**Delta 3 ferrite rod antenna.United KingdomEurope 3Running2022-09-28 09:3341311701362 km3197 km
2453Llwynhendy, Llanelli SA14 9**Delta 3 ferrite rod antenna.United KingdomEurope 2Running2022-09-28 09:3341311801362 km3197 km
2000KochiKochi Univ. & SITJapanJapan 1Running2022-09-28 09:35118831451141 km3200 km
1587OkinawaRyukyu Univ. & SITJapanJapan 1Running2022-09-28 09:3575552110131531 km3201 km
1170Colorado SpringsUnited States / ColoradoNorth America 2Running2022-09-28 09:35657461296193860 km3208 km
1246Tucson FoothillsAntennas relocated to quieter ...United States / ArizonaSouth America 1Running2022-09-28 09:3478752958364228502 km3211 km
1246Tucson FoothillsAntennas relocated to quieter ...United States / ArizonaNorth America 2Running2022-09-28 09:35787129511054142475 km3212 km
1919KukeEstoniaEurope 3Running2022-09-28 09:351148279215501463 km3216 km
1919KukeEstoniaEurope 2Running2022-09-28 09:351148179206111463 km3216 km
1790GrythyttanSwedenEurope 3Running2022-09-28 09:3415713010801916 km3219 km
1790GrythyttanSwedenEurope 2Running2022-09-28 09:3415713011301916 km3219 km
2638Bogota D.C.EMC-UN main Test stageColombiaNorth America 1Interference2022-09-28 09:34851664666842513 km3220 km
1640HaldenHjortsbergveien - H-fieldNorwayEurope 3Running2022-09-28 09:35215448299452293 km3221 km
1640HaldenHjortsbergveien - H-fieldNorwayEurope 2Running2022-09-28 09:35215258292472294 km3221 km
2555Boecillo / ValladolidEA1FAQSpainJapan 1Running2022-09-28 09:34220415271816795 km3227 km
2595Boone CountyUnited States / NebraskaNorth America 1Running2022-09-28 09:34705672186551117 km3228 km
2595Boone CountyUnited States / NebraskaNorth America 2Running2022-09-28 09:347116784721341119 km3228 km
812Albury, NSW.Primary sensorAustralia / New South WalesOceania 1Running2022-09-28 09:33156501037124501736336 km3228 km
2000KochiKochi Univ. & SITJapanAsia 1Running2022-09-28 09:3311983311634 km3234 km
1246Tucson FoothillsAntennas relocated to quieter ...United States / ArizonaNorth America 1Running2022-09-28 09:347866295328041483 km3237 km
849Corryong, VicAustralia / VictoriaOceania 1Running2022-09-28 09:331132671531406284 km3238 km
844RockinghamRebirth (temporary)Australia / Western AustraliaOceania 1Running2022-09-28 09:332287303024 km3239 km
1849PajalaSwedenEurope 1Running2022-09-28 09:33721735292411223 km3239 km
2954Imperial Oaks - Red300mm split coilUnited States / TexasNorth America 1Running2022-09-28 09:34108942906427231779 km3240 km
2867ZacharyUnited States / LouisianaAsia 1Running2022-09-28 09:345741637618649317938 km3243 km
2035NiigataBlueJapanJapan 2Running2022-09-28 09:35162914822321730 km3246 km
1156LelandTesting low gain loopsUnited States / North CarolinaNorth America 2Running2022-09-28 09:3519481872697196305 km3249 km
2200KongsbergNorwayEurope 1Running2022-09-28 09:331267386813253 km3252 km
1648Trinityblue, 2x 200mm shielded ferrit...United States / FloridaNorth America 2Running2022-09-28 09:35185351499826561882191 km3257 km
2320Calvert Island, BCBLUE with 200mm ferrite rods &...CanadaNorth America 1Running2022-09-28 09:33293276171822 km3257 km
1697MonbazillacRED station FW 9.2 * PCB 10.4/...FranceEurope 3Running2022-09-28 09:3424318112043529 km3260 km
1697MonbazillacRED station FW 9.2 * PCB 10.4/...FranceEurope 2Running2022-09-28 09:3424318112244529 km3260 km
2555Boecillo / ValladolidEA1FAQSpainAsia 1Running2022-09-28 09:34219115227943854 km3260 km
2431LakewoodUnited States / ColoradoNorth America 2Running2022-09-28 09:352789271419305858 km3266 km
2037AlmatyKazakhstanAsia 1Running2022-09-28 09:338041291542372 km3272 km
2828Oakhill3 x 200mm Ferrite Rods in a Tr...United KingdomEurope 3Running2022-09-28 09:341251088111222 km3273 km
2828Oakhill3 x 200mm Ferrite Rods in a Tr...United KingdomEurope 2Running2022-09-28 09:341251088621222 km3273 km
2689Thunder Bayhttps://youtu.be/HNiljHBG-PMCanadaJapan 1Running2022-09-28 09:3515734101561141101057 km3278 km
1382WinnipegCanadaNorth America 1Running2022-09-28 09:324424390509 km3281 km
1382WinnipegCanadaNorth America 2Running2022-09-28 09:324424381434 km3283 km
2132PathumthaniRMUTT, Hokkaido Univ. & SITThailandJapan 1Running2022-09-28 09:3535063342116911208 km3287 km
1953AdanaTurkeyEurope 1Running2022-09-28 09:328204378213663 km3288 km
2277KagawaKagawa Univ. & SITJapanAsia 1Running2022-09-28 09:34112581227251397 km3288 km
682JyväskyläREDFinlandEurope 1Running2022-09-28 09:32541743305101726 km3288 km
1175IndependenceSystem Red shielded ferrite an...United States / IowaNorth America 2Running2022-09-28 09:35115616037420631321 km3289 km
2389LovozeroSystem BlueRussian FederationEurope 1Running2022-09-28 09:313936902316 km3297 km
2389LovozeroSystem BlueRussian FederationEurope 3Running2022-09-28 09:3139363001914 km3297 km
2389LovozeroSystem BlueRussian FederationEurope 2Running2022-09-28 09:3139363101914 km3297 km
2839Plaisance du Touch (31)System BlueFranceEurope 3Running2022-09-28 09:34121976021410 km3302 km
Соціальні мережі
facebook LIKE US ON FACEBOOK
twitter FOLLOW US IN TWITTER
Виберіть мову меню
češtinadanskdeutschελληνικάenglishespañolsuomeksifrançaismagyaritaliano日本語latviskinederlandsenorskмакедонскиpolskiрусскийсрпскиsvenskatürkукраїнський
Якщо ваша мова не підтримується, і якщо ви хочете, щоб адаптувати мову меню, напишіть лист на info ☺ blitzortung.org.